EW7598 Weather Reports


time (UTC)temp
C
wind
direction
speed
KPH
gust
KPH
rain 1hr
cm
rain 24hr
cm
rain mn
cm
humidity
%
barometer
mb
20260504184547 23 203 0.0 4.8 0.00 0.00 0.00 37 1015.0
20260504183034 23 183 1.6 6.4 0.00 0.00 0.00 39 1015.0
20260504181536 22 257 0.0 6.4 0.00 0.00 0.00 36 1015.2
20260504180031 22 207 1.6 6.4 0.00 0.00 0.00 38 1015.3
20260504174528 22 226 0.0 3.2 0.00 0.00 0.00 37 1015.5
20260504173028 22 274 0.0 6.4 0.00 0.00 0.00 38 1015.5
20260504171527 22 218 0.0 3.2 0.00 0.00 0.00 38 1015.9
20260504140106 17 313 0.0 3.2 0.00 0.00 0.00 59 1017.3
20260504081503 5 212 0.0 0.0 0.00 0.00 0.00 84 1017.2
20260504044544 7 212 0.0 0.0 0.00 0.00 0.00 76 1017.4
20260504043039 7 212 0.0 0.0 0.00 0.00 0.00 75 1017.4
20260504041539 7 212 0.0 0.0 0.00 0.00 0.00 73 1017.5
20260504040038 7 265 0.0 0.0 0.00 0.00 0.00 77 1017.5
20260504034535 7 265 0.0 0.0 0.00 0.00 0.00 78 1017.6
20260504033047 7 265 0.0 0.0 0.00 0.00 0.00 78 1017.5
20260504031535 7 265 0.0 0.0 0.00 0.00 0.00 76 1017.6
20260504030033 7 265 0.0 0.0 0.00 0.00 0.00 76 1017.5
20260504024543 8 265 0.0 0.0 0.00 0.00 0.00 74 1017.4
20260504023032 8 265 0.0 0.0 0.00 0.00 0.00 68 1017.3
20260504021531 8 265 0.0 0.0 0.00 0.00 0.00 66 1017.1
20260504020033 8 265 0.0 0.0 0.00 0.00 0.00 66 1017.0
20260504014530 9 265 0.0 0.0 0.00 0.00 0.00 67 1016.9
20260504013029 9 265 0.0 0.0 0.00 0.00 0.00 65 1016.9
20260504011528 10 265 0.0 0.0 0.00 0.00 0.00 64 1016.9
20260504010030 10 265 0.0 0.0 0.00 0.00 0.00 61 1016.7
20260504004539 11 265 0.0 0.0 0.00 0.00 0.00 57 1016.6
20260504003026 11 265 0.0 0.0 0.00 0.00 0.00 54 1016.4
20260504001526 12 265 0.0 0.0 0.00 0.00 0.00 52 1016.4
20260504000027 13 265 0.0 0.0 0.00 0.00 0.00 46 1016.3
20260503234525 13 265 0.0 0.0 0.00 0.00 0.00 43 1016.3
20260503233030 14 265 0.0 0.0 0.00 0.00 0.00 40 1016.1
20260503231525 15 265 0.0 0.0 0.00 0.00 0.00 38 1016.1
20260503230024 15 265 0.0 0.0 0.00 0.00 0.00 37 1016.2
20260503224523 16 265 0.0 1.6 0.00 0.00 0.00 35 1016.3
20260503223022 16 329 0.0 1.6 0.00 0.00 0.00 33 1016.5
20260503221522 16 255 0.0 3.2 0.00 0.00 0.00 33 1016.7
20260503220021 16 252 0.0 1.6 0.00 0.00 0.00 34 1016.7
20260503214519 16 208 0.0 4.8 0.00 0.00 0.00 33 1016.7
20260503213021 16 295 0.0 4.8 0.00 0.00 0.00 33 1016.8
20260503211522 16 269 0.0 4.8 0.00 0.00 0.00 31 1016.9
20260503210018 16 284 3.2 11.3 0.00 0.00 0.00 31 1017.0
20260503204516 16 250 0.0 9.7 0.00 0.00 0.00 31 1017.1
20260503203017 16 352 0.0 4.8 0.00 0.00 0.00 30 1017.2
20260503201516 16 266 0.0 14.5 0.00 0.00 0.00 30 1017.4
20260503200014 16 257 0.0 4.8 0.00 0.00 0.00 32 1017.7
20260503194512 16 233 0.0 6.4 0.00 0.00 0.00 32 1017.8
20260503193029 16 266 0.0 6.4 0.00 0.00 0.00 32 1017.9
20260503191512 16 255 1.6 4.8 0.00 0.00 0.00 30 1018.2
20260503190022 15 232 0.0 6.4 0.00 0.00 0.00 33 1018.3